Location: Asheville, NC
(35.6000°N, 82.5500°W)
Time: 22:00:56
(UTC-04:00)

DOVE 4 - Visible Passes

Search period start: 25 April 2018 00:00
Search period end: 05 May 2018 00:00
Orbit: 588 x 804 km, 97.7° (Epoch: 25 April)

Date Brightness Start Highest point End Pass type
(mag) Time Alt. Az. Time Alt. Az. Time Alt. Az.
25 Apr ? 05:16:56 10° NE 05:20:25 26° E 05:23:55 10° SSE visible
26 Apr ? 05:57:11 10° NNE 06:01:19 86° E 06:05:30 10° SSW visible
27 Apr ? 05:01:31 10° NE 05:04:18 17° E 05:07:06 10° SE visible
28 Apr ? 05:41:13 10° NNE 05:45:17 54° E 05:49:24 10° S visible
29 Apr ? 04:46:51 10° ENE 04:48:10 11° E 04:49:29 10° ESE visible
30 Apr ? 05:25:25 10° NNE 05:29:13 34° E 05:33:05 10° SSE visible
01 May ? 06:05:56 10° N 06:10:03 71° WNW 06:14:17 10° SSW visible
02 May ? 05:09:47 10° NE 05:13:07 23° E 05:16:31 10° SSE visible
03 May ? 05:49:52 10° NNE 05:54:02 74° ESE 05:58:19 10° S visible
04 May ? 04:54:29 10° ENE 04:57:00 15° E 04:59:34 10° SE visible
